TimeEST,TemperatureF,Dew PointF,Humidity,Sea Level PressureIn,VisibilityMPH,Wind Direction,Wind SpeedMPH,Gust SpeedMPH,PrecipitationIn,Events,Conditions,WindDirDegrees,DateUTC
12:15 AM,35.6,35.6,100,29.61,4.0,Calm,Calm,-,N/A,,Overcast,0,2013-03-06 05:15:00
12:35 AM,35.6,35.6,100,29.62,1.5,NW,8.1,-,N/A,Snow,Light Snow,320,2013-03-06 05:35:00
12:55 AM,35.6,35.6,100,29.62,7.0,North,6.9,-,0.01,Snow,Light Snow,10,2013-03-06 05:55:00
1:15 AM,35.6,35.6,100,29.61,10.0,NW,10.4,-,N/A,Snow,Light Snow,320,2013-03-06 06:15:00
1:35 AM,35.6,35.6,100,29.62,5.0,WNW,12.7,23.0,N/A,Snow,Light Snow,300,2013-03-06 06:35:00
1:55 AM,35.6,35.6,100,29.63,1.8,WNW,12.7,20.7,N/A,Snow,Light Snow,290,2013-03-06 06:55:00
2:15 AM,35.6,33.8,93,29.63,10.0,WNW,8.1,19.6,N/A,Snow,Light Snow,300,2013-03-06 07:15:00
2:35 AM,33.8,32.0,93,29.62,10.0,WNW,8.1,16.1,N/A,,Overcast,300,2013-03-06 07:35:00
2:55 AM,33.8,30.2,87,29.61,10.0,WNW,12.7,20.7,N/A,Snow,Light Snow,300,2013-03-06 07:55:00
3:15 AM,33.8,30.2,87,29.61,10.0,WNW,17.3,23.0,N/A,Snow,Light Snow,290,2013-03-06 08:15:00
3:35 AM,33.8,30.2,87,29.61,10.0,WNW,15.0,21.9,N/A,Snow,Light Snow,290,2013-03-06 08:35:00
3:55 AM,33.8,28.4,81,29.61,10.0,WNW,20.7,28.8,N/A,Snow,Light Snow,290,2013-03-06 08:55:00
4:15 AM,32.0,28.4,87,29.61,10.0,WNW,9.2,21.9,N/A,,Overcast,290,2013-03-06 09:15:00
4:35 AM,32.0,28.4,87,29.61,10.0,WNW,13.8,20.7,N/A,Snow,Light Snow,290,2013-03-06 09:35:00
4:55 AM,32.0,28.4,87,29.61,7.0,WNW,12.7,19.6,N/A,Snow,Light Snow,290,2013-03-06 09:55:00
5:15 AM,30.2,28.4,93,29.62,7.0,WNW,13.8,26.5,N/A,Snow,Light Snow,290,2013-03-06 10:15:00
5:35 AM,30.2,26.6,86,29.63,7.0,WNW,15.0,24.2,N/A,Snow,Light Snow,290,2013-03-06 10:35:00
5:55 AM,30.2,26.6,86,29.63,7.0,WNW,11.5,23.0,N/A,Snow,Light Snow,290,2013-03-06 10:55:00
6:15 AM,30.2,26.6,86,29.64,5.0,WNW,15.0,23.0,N/A,Snow,Light Snow,290,2013-03-06 11:15:00
6:35 AM,30.2,24.8,80,29.65,10.0,WNW,19.6,28.8,N/A,,Overcast,290,2013-03-06 11:35:00
6:55 AM,30.2,24.8,80,29.66,10.0,WNW,11.5,24.2,N/A,Snow,Light Snow,290,2013-03-06 11:55:00
7:15 AM,28.4,24.8,86,29.67,10.0,WNW,13.8,21.9,N/A,Snow,Light Snow,290,2013-03-06 12:15:00
7:35 AM,28.4,24.8,86,29.69,10.0,WNW,11.5,19.6,N/A,Snow,Light Snow,290,2013-03-06 12:35:00
7:55 AM,30.2,24.8,80,29.69,10.0,WNW,17.3,21.9,N/A,Snow,Light Snow,290,2013-03-06 12:55:00
8:15 AM,30.2,26.6,86,29.70,2.5,WNW,15.0,24.2,N/A,Snow,Light Snow,290,2013-03-06 13:15:00
8:35 AM,28.4,26.6,93,29.70,1.8,West,17.3,25.3,N/A,Snow,Light Snow,280,2013-03-06 13:35:00
8:55 AM,30.2,26.6,86,29.72,2.5,WNW,12.7,24.2,N/A,Snow,Light Snow,300,2013-03-06 13:55:00
9:15 AM,30.2,28.4,93,29.73,2.5,WNW,17.3,21.9,N/A,Snow,Light Snow,300,2013-03-06 14:15:00
9:35 AM,30.2,28.4,93,29.74,2.5,WNW,15.0,23.0,N/A,Snow,Light Snow,290,2013-03-06 14:35:00
9:55 AM,30.2,28.4,93,29.75,5.0,WNW,13.8,33.4,N/A,Snow,Light Snow,290,2013-03-06 14:55:00
10:15 AM,32.0,28.4,87,29.76,7.0,WNW,10.4,26.5,N/A,,Overcast,290,2013-03-06 15:15:00
10:35 AM,32.0,28.4,87,29.77,10.0,WNW,15.0,24.2,N/A,,Overcast,290,2013-03-06 15:35:00
10:55 AM,32.0,28.4,87,29.78,10.0,WNW,16.1,26.5,N/A,,Overcast,300,2013-03-06 15:55:00
11:15 AM,33.8,28.4,81,29.79,10.0,WNW,17.3,33.4,N/A,,Mostly Cloudy,300,2013-03-06 16:15:00
11:35 AM,33.8,28.4,81,29.81,10.0,WNW,17.3,29.9,N/A,,Overcast,290,2013-03-06 16:35:00
11:55 AM,33.8,28.4,81,29.81,10.0,WNW,13.8,27.6,N/A,,Overcast,290,2013-03-06 16:55:00
12:15 PM,35.6,30.2,81,29.82,10.0,WNW,19.6,31.1,N/A,,Mostly Cloudy,300,2013-03-06 17:15:00
12:35 PM,35.6,30.2,81,29.82,10.0,WNW,20.7,27.6,N/A,,Mostly Cloudy,300,2013-03-06 17:35:00
12:55 PM,37.4,32.0,81,29.82,10.0,NW,20.7,34.5,N/A,,Scattered Clouds,310,2013-03-06 17:55:00
1:15 PM,37.4,30.2,75,29.81,10.0,NW,26.5,31.1,N/A,,Scattered Clouds,320,2013-03-06 18:15:00
1:35 PM,37.4,32.0,81,29.82,10.0,WNW,20.7,28.8,N/A,,Scattered Clouds,300,2013-03-06 18:35:00
1:55 PM,35.6,30.2,81,29.84,10.0,WNW,11.5,24.2,N/A,,Mostly Cloudy,300,2013-03-06 18:55:00
2:15 PM,35.6,28.4,75,29.86,10.0,WNW,6.9,-,N/A,,Overcast,300,2013-03-06 19:15:00
2:35 PM,33.8,28.4,81,29.87,10.0,WNW,11.5,21.9,N/A,,Overcast,300,2013-03-06 19:35:00
2:55 PM,33.8,30.2,87,29.87,10.0,WNW,19.6,24.2,N/A,,Overcast,300,2013-03-06 19:55:00
3:15 PM,35.6,30.2,81,29.89,10.0,WNW,15.0,27.6,N/A,,Overcast,300,2013-03-06 20:15:00
3:35 PM,35.6,30.2,81,29.90,10.0,WNW,11.5,21.9,N/A,,Overcast,300,2013-03-06 20:35:00
3:55 PM,33.8,30.2,87,29.93,10.0,WNW,17.3,24.2,N/A,,Overcast,300,2013-03-06 20:55:00
4:15 PM,35.6,30.2,81,29.94,10.0,NW,16.1,20.7,N/A,,Overcast,310,2013-03-06 21:15:00
4:35 PM,33.8,30.2,87,29.96,10.0,NW,10.4,25.3,N/A,,Overcast,310,2013-03-06 21:35:00
4:55 PM,33.8,30.2,87,29.97,10.0,NW,17.3,25.3,N/A,,Overcast,310,2013-03-06 21:55:00
5:15 PM,33.8,30.2,87,29.98,10.0,NW,20.7,27.6,N/A,,Overcast,320,2013-03-06 22:15:00
5:35 PM,33.8,30.2,87,29.99,7.0,NW,19.6,26.5,N/A,,Overcast,310,2013-03-06 22:35:00
5:55 PM,33.8,30.2,87,30.00,10.0,NNW,21.9,26.5,N/A,,Overcast,330,2013-03-06 22:55:00
6:15 PM,33.8,30.2,87,30.02,10.0,NW,17.3,24.2,N/A,,Overcast,310,2013-03-06 23:15:00
6:35 PM,33.8,30.2,87,30.02,10.0,NW,16.1,23.0,N/A,,Overcast,320,2013-03-06 23:35:00
6:55 PM,33.8,30.2,87,30.02,10.0,WNW,19.6,24.2,N/A,,Overcast,300,2013-03-06 23:55:00
7:15 PM,33.8,30.2,87,30.03,10.0,NW,17.3,-,N/A,,Overcast,310,2013-03-07 00:15:00
7:35 PM,33.8,30.2,87,30.04,10.0,NW,15.0,25.3,N/A,,Overcast,320,2013-03-07 00:35:00
7:55 PM,33.8,30.2,87,30.05,10.0,WNW,8.1,18.4,N/A,,Overcast,300,2013-03-07 00:55:00
8:15 PM,33.8,30.2,87,30.04,10.0,WNW,6.9,-,N/A,,Overcast,290,2013-03-07 01:15:00
8:35 PM,33.8,30.2,87,30.05,10.0,WNW,6.9,-,N/A,,Overcast,290,2013-03-07 01:35:00
8:55 PM,33.8,30.2,87,30.06,10.0,WNW,6.9,-,N/A,,Overcast,290,2013-03-07 01:55:00
9:35 PM,33.8,30.2,87,30.07,10.0,NW,9.2,16.1,N/A,,Overcast,320,2013-03-07 02:35:00
9:55 PM,33.8,30.2,87,30.07,10.0,WNW,13.8,21.9,N/A,,Overcast,300,2013-03-07 02:55:00
10:15 PM,33.8,30.2,87,30.08,10.0,WNW,13.8,18.4,N/A,,Overcast,300,2013-03-07 03:15:00
10:35 PM,33.8,30.2,87,30.09,10.0,NW,13.8,18.4,N/A,,Overcast,310,2013-03-07 03:35:00
10:55 PM,33.8,30.2,87,30.09,10.0,NNW,10.4,20.7,N/A,,Overcast,330,2013-03-07 03:55:00
11:15 PM,33.8,30.2,87,30.08,10.0,WNW,11.5,-,N/A,,Overcast,300,2013-03-07 04:15:00
11:35 PM,33.8,30.2,87,30.08,10.0,NW,8.1,-,N/A,,Overcast,310,2013-03-07 04:35:00
11:55 PM,33.8,30.2,87,30.08,10.0,NW,8.1,-,N/A,,Overcast,310,2013-03-07 04:55:00